Time,TemperatureF,DewpointF,PressureIn,WindDirection,WindDirectionDegrees,WindSpeedMPH,WindSpeedGustMPH,Humidity,HourlyPrecipIn,Conditions,Clouds,dailyrainin,SoftwareType,DateUTC
2013-01-30 00:00:00,63.1,63.1,28.76,SSW,209,8.3,8.3,100,0.00,,---,0.00,VWS V14.00,2013-01-30 05:00:00,
2013-01-30 00:01:00,63.1,63.1,28.76,SW,236,9.6,11.0,100,0.00,,---,0.00,VWS V14.00,2013-01-30 05:01:00,
2013-01-30 00:02:00,63.1,63.1,28.76,SW,236,9.6,9.6,100,0.00,,---,0.00,VWS V14.00,2013-01-30 05:02:00,
2013-01-30 00:07:00,63.1,63.1,28.76,SSW,207,8.7,8.7,100,0.00,,---,0.00,VWS V14.00,2013-01-30 05:07:00,
2013-01-30 00:12:00,63.1,63.1,28.76,SSW,193,18.3,18.3,100,0.00,,---,0.00,VWS V14.00,2013-01-30 05:12:00,
2013-01-30 00:17:00,63.1,63.1,28.76,SSW,211,7.6,7.6,100,0.00,,---,0.00,VWS V14.00,2013-01-30 05:17:00,
2013-01-30 00:22:00,63.3,63.3,28.73,SSW,212,8.1,15.4,100,0.00,,---,0.00,VWS V14.00,2013-01-30 05:22:00,
2013-01-30 00:27:00,63.3,63.3,28.73,SW,232,8.7,15.4,100,0.00,,---,0.00,VWS V14.00,2013-01-30 05:27:00,
2013-01-30 00:32:00,63.1,63.1,28.73,SW,229,10.1,10.1,100,0.00,,---,0.00,VWS V14.00,2013-01-30 05:32:00,
2013-01-30 00:37:00,63.1,63.1,28.73,SSW,197,13.2,13.2,100,0.00,,---,0.00,VWS V14.00,2013-01-30 05:37:00,
2013-01-30 00:42:00,63.1,63.1,28.73,SSW,194,8.7,10.1,100,0.00,,---,0.00,VWS V14.00,2013-01-30 05:42:00,
2013-01-30 00:47:00,63.0,63.0,28.73,SW,219,13.6,13.6,100,0.00,,---,0.00,VWS V14.00,2013-01-30 05:47:00,
2013-01-30 00:52:00,63.0,63.0,28.73,NW,318,7.6,7.6,100,0.00,,---,0.00,VWS V14.00,2013-01-30 05:52:00,
2013-01-30 00:57:00,63.0,63.0,28.73,SSW,212,10.1,10.5,100,0.00,,---,0.00,VWS V14.00,2013-01-30 05:57:00,
2013-01-30 01:02:00,63.0,63.0,28.73,SW,218,6.3,6.3,100,0.00,,---,0.00,VWS V14.00,2013-01-30 06:02:00,
2013-01-30 01:07:00,63.0,63.0,28.73,SW,235,7.6,12.3,100,0.00,,---,0.00,VWS V14.00,2013-01-30 06:07:00,
2013-01-30 01:12:00,63.0,63.0,28.70,SW,225,14.1,14.1,100,0.00,,---,0.00,VWS V14.00,2013-01-30 06:12:00,
2013-01-30 01:17:00,63.0,63.0,28.70,South,175,8.1,8.1,100,0.00,,---,0.00,VWS V14.00,2013-01-30 06:17:00,
2013-01-30 01:22:00,63.1,63.1,28.70,SSW,211,8.7,8.7,100,0.00,,---,0.00,VWS V14.00,2013-01-30 06:22:00,
2013-01-30 01:27:00,63.1,63.1,28.70,SSW,194,12.8,12.8,100,0.00,,---,0.00,VWS V14.00,2013-01-30 06:27:00,
2013-01-30 01:32:00,63.1,63.1,28.70,SW,216,11.0,11.0,100,0.00,,---,0.00,VWS V14.00,2013-01-30 06:32:00,
2013-01-30 01:37:00,63.1,63.1,28.70,SSE,168,13.2,13.2,100,0.00,,---,0.00,VWS V14.00,2013-01-30 06:37:00,
2013-01-30 01:42:00,63.3,63.3,28.70,SW,218,6.3,6.3,100,0.00,,---,0.00,VWS V14.00,2013-01-30 06:42:00,
2013-01-30 01:47:00,63.3,63.3,28.70,SSW,207,12.8,12.8,100,0.00,,---,0.00,VWS V14.00,2013-01-30 06:47:00,
2013-01-30 01:52:00,63.3,63.3,28.70,WSW,241,9.6,9.6,100,0.00,,---,0.00,VWS V14.00,2013-01-30 06:52:00,
2013-01-30 01:57:00,63.5,63.5,28.67,SE,127,6.3,6.3,100,0.00,,---,0.00,VWS V14.00,2013-01-30 06:57:00,
2013-01-30 02:02:00,63.5,63.5,28.67,South,189,15.4,15.4,100,0.00,,---,0.00,VWS V14.00,2013-01-30 07:02:00,
2013-01-30 02:07:00,63.3,63.3,28.70,SSW,202,6.3,7.6,100,0.00,,---,0.00,VWS V14.00,2013-01-30 07:07:00,
2013-01-30 02:12:00,63.7,63.7,28.70,SSW,212,8.3,8.3,100,0.00,,---,0.00,VWS V14.00,2013-01-30 07:12:00,
2013-01-30 02:17:00,63.9,63.9,28.70,SSE,166,7.6,10.5,100,0.00,,---,0.00,VWS V14.00,2013-01-30 07:17:00,
2013-01-30 02:22:00,63.9,63.9,28.67,South,182,10.1,10.1,100,0.00,,---,0.00,VWS V14.00,2013-01-30 07:22:00,
2013-01-30 02:27:00,64.0,64.0,28.67,SSW,208,13.2,13.2,100,0.00,,---,0.00,VWS V14.00,2013-01-30 07:27:00,
2013-01-30 02:32:00,64.4,64.4,28.67,SSW,213,16.8,16.8,100,0.00,,---,0.00,VWS V14.00,2013-01-30 07:32:00,
2013-01-30 02:37:00,64.4,64.4,28.67,WSW,238,13.2,13.2,100,0.00,,---,0.00,VWS V14.00,2013-01-30 07:37:00,
2013-01-30 02:42:00,64.4,64.4,28.67,SSE,150,8.7,15.4,100,0.00,,---,0.00,VWS V14.00,2013-01-30 07:42:00,
2013-01-30 02:47:00,64.4,64.4,28.67,South,190,8.3,8.3,100,0.00,,---,0.00,VWS V14.00,2013-01-30 07:47:00,
2013-01-30 02:52:00,64.4,64.4,28.64,SSW,205,15.4,15.4,100,0.00,,---,0.00,VWS V14.00,2013-01-30 07:52:00,
2013-01-30 02:57:00,64.6,64.6,28.64,SW,231,13.2,13.2,100,0.00,,---,0.00,VWS V14.00,2013-01-30 07:57:00,
2013-01-30 03:02:00,64.6,64.6,28.64,WSW,253,11.0,11.0,100,0.00,,---,0.00,VWS V14.00,2013-01-30 08:02:00,
2013-01-30 03:07:00,64.8,64.8,28.64,SSW,197,4.9,10.5,100,0.00,,---,0.00,VWS V14.00,2013-01-30 08:07:00,
2013-01-30 03:12:00,64.9,64.9,28.64,ESE,111,14.5,14.5,100,0.00,,---,0.00,VWS V14.00,2013-01-30 08:12:00,
2013-01-30 03:17:00,65.1,65.1,28.64,South,187,7.6,15.4,100,0.00,,---,0.00,VWS V14.00,2013-01-30 08:17:00,
2013-01-30 03:22:00,65.1,65.1,28.64,SSW,193,8.1,8.1,100,0.00,,---,0.00,VWS V14.00,2013-01-30 08:22:00,
2013-01-30 03:27:00,65.1,65.1,28.64,WSW,253,10.5,10.5,100,0.00,,---,0.00,VWS V14.00,2013-01-30 08:27:00,
2013-01-30 03:32:00,65.3,65.3,28.64,SW,231,7.6,7.6,100,0.00,,---,0.00,VWS V14.00,2013-01-30 08:32:00,
2013-01-30 03:37:00,65.3,65.3,28.61,SSW,197,11.0,11.0,100,0.00,,---,0.00,VWS V14.00,2013-01-30 08:37:00,
2013-01-30 03:42:00,65.7,65.7,28.61,SSW,193,7.6,10.1,100,0.00,,---,0.00,VWS V14.00,2013-01-30 08:42:00,
2013-01-30 03:47:00,65.7,65.7,28.61,SW,231,5.4,5.4,100,0.00,,---,0.00,VWS V14.00,2013-01-30 08:47:00,
2013-01-30 03:52:00,65.7,65.7,28.61,South,177,4.9,4.9,100,0.00,,---,0.00,VWS V14.00,2013-01-30 08:52:00,
2013-01-30 03:57:00,65.5,65.5,28.61,South,177,4.9,4.9,100,0.00,,---,0.00,VWS V14.00,2013-01-30 08:57:00,
2013-01-30 04:02:00,65.5,65.5,28.61,SW,218,3.6,3.6,100,0.00,,---,0.00,VWS V14.00,2013-01-30 09:02:00,
2013-01-30 04:07:00,65.7,65.7,28.61,SW,218,3.6,3.6,100,0.00,,---,0.00,VWS V14.00,2013-01-30 09:07:00,
2013-01-30 04:12:00,65.7,65.7,28.61,SW,230,15.4,15.4,100,0.00,,---,0.00,VWS V14.00,2013-01-30 09:12:00,
2013-01-30 04:17:00,66.0,66.0,28.61,South,182,8.7,8.7,100,0.00,,---,0.00,VWS V14.00,2013-01-30 09:17:00,
2013-01-30 04:22:00,66.0,66.0,28.59,SW,224,12.8,12.8,100,0.00,,---,0.00,VWS V14.00,2013-01-30 09:22:00,
2013-01-30 04:27:00,66.0,66.0,28.59,SSW,207,8.1,12.8,100,0.00,,---,0.00,VWS V14.00,2013-01-30 09:27:00,
2013-01-30 04:32:00,66.0,66.0,28.59,SSW,195,8.1,8.1,100,0.00,,---,0.00,VWS V14.00,2013-01-30 09:32:00,
2013-01-30 04:37:00,66.2,66.2,28.59,SW,217,11.9,16.3,100,0.00,,---,0.00,VWS V14.00,2013-01-30 09:37:00,
2013-01-30 04:42:00,66.2,66.2,28.59,SW,226,15.0,15.0,100,0.00,,---,0.00,VWS V14.00,2013-01-30 09:42:00,
2013-01-30 04:47:00,66.2,66.2,28.59,NE,47,8.3,8.3,100,0.00,,---,0.00,VWS V14.00,2013-01-30 09:47:00,
2013-01-30 04:52:00,66.4,66.4,28.56,SSW,197,6.3,12.3,100,0.00,,---,0.00,VWS V14.00,2013-01-30 09:52:00,
2013-01-30 04:57:00,66.4,66.4,28.56,SSW,212,6.3,6.3,100,0.00,,---,0.00,VWS V14.00,2013-01-30 09:57:00,
2013-01-30 05:02:00,66.2,66.2,28.56,SSW,210,8.3,17.0,100,0.00,,---,0.00,VWS V14.00,2013-01-30 10:02:00,
2013-01-30 05:07:00,66.0,66.0,28.53,SSW,202,15.4,19.7,100,0.00,,---,0.00,VWS V14.00,2013-01-30 10:07:00,
2013-01-30 05:12:00,65.7,65.7,28.53,ESE,108,12.3,12.3,100,0.00,,---,0.00,VWS V14.00,2013-01-30 10:12:00,
2013-01-30 05:17:00,65.5,65.5,28.53,WSW,240,14.1,14.1,100,0.00,,---,0.00,VWS V14.00,2013-01-30 10:17:00,
2013-01-30 05:22:00,64.9,64.9,28.53,SW,222,7.6,7.6,100,0.00,,---,0.00,VWS V14.00,2013-01-30 10:22:00,
2013-01-30 05:27:00,64.6,64.6,28.53,WSW,239,8.7,15.0,100,0.00,,---,0.00,VWS V14.00,2013-01-30 10:27:00,
2013-01-30 05:32:00,61.2,61.2,28.53,WSW,256,8.1,8.1,100,2.17,,---,0.12,VWS V14.00,2013-01-30 10:32:00,
2013-01-30 05:37:00,59.0,59.0,28.59,NW,315,5.8,7.6,100,2.32,,---,0.28,VWS V14.00,2013-01-30 10:37:00,
2013-01-30 05:42:00,57.6,57.6,28.59,NW,306,4.9,5.4,100,1.30,,---,0.28,VWS V14.00,2013-01-30 10:42:00,
2013-01-30 05:47:00,56.3,56.3,28.59,NNW,332,4.9,6.3,100,0.51,,---,0.35,VWS V14.00,2013-01-30 10:47:00,
2013-01-30 05:52:00,55.2,55.2,28.61,NNW,331,8.7,8.7,100,0.51,,---,0.43,VWS V14.00,2013-01-30 10:52:00,
2013-01-30 05:57:00,54.7,54.7,28.61,West,267,4.9,4.9,100,0.51,,---,0.43,VWS V14.00,2013-01-30 10:57:00,
2013-01-30 06:02:00,54.3,54.3,28.61,WNW,293,3.6,4.9,100,0.51,,---,0.43,VWS V14.00,2013-01-30 11:02:00,
2013-01-30 06:07:00,54.0,54.0,28.61,WNW,303,8.1,8.1,100,0.51,,---,0.47,VWS V14.00,2013-01-30 11:07:00,
2013-01-30 06:12:00,53.4,53.4,28.61,WNW,294,8.3,10.1,100,0.24,,---,0.47,VWS V14.00,2013-01-30 11:12:00,
2013-01-30 06:17:00,53.1,53.1,28.61,NW,317,6.3,10.5,100,0.24,,---,0.47,VWS V14.00,2013-01-30 11:17:00,
2013-01-30 06:22:00,52.7,52.7,28.64,WNW,293,3.6,5.8,100,0.24,,---,0.47,VWS V14.00,2013-01-30 11:22:00,
2013-01-30 06:27:00,52.3,52.3,28.64,NW,304,8.3,11.0,100,0.24,,---,0.47,VWS V14.00,2013-01-30 11:27:00,
2013-01-30 06:32:00,52.3,52.3,28.64,WSW,249,3.1,3.1,100,0.24,,---,0.47,VWS V14.00,2013-01-30 11:32:00,
2013-01-30 06:37:00,52.3,52.3,28.70,West,274,6.3,6.3,100,0.24,,---,0.47,VWS V14.00,2013-01-30 11:37:00,
2013-01-30 06:42:00,52.2,52.2,28.70,West,275,8.7,8.7,100,0.12,,---,0.51,VWS V14.00,2013-01-30 11:42:00,
2013-01-30 06:47:00,52.2,52.2,28.70,NNW,342,2.7,5.4,100,0.12,,---,0.51,VWS V14.00,2013-01-30 11:47:00,
2013-01-30 06:52:00,52.0,52.0,28.67,NNW,332,0.0,0.0,100,0.12,,---,0.51,VWS V14.00,2013-01-30 11:52:00,
2013-01-30 06:57:00,52.0,52.0,28.67,NW,323,0.0,0.0,100,0.12,,---,0.55,VWS V14.00,2013-01-30 11:57:00,
2013-01-30 07:02:00,51.8,51.8,28.67,NW,323,0.0,0.0,100,0.12,,---,0.55,VWS V14.00,2013-01-30 12:02:00,
2013-01-30 07:07:00,51.8,51.8,28.64,NW,323,0.0,0.0,100,0.12,,---,0.55,VWS V14.00,2013-01-30 12:07:00,
2013-01-30 07:12:00,51.6,51.6,28.64,NW,323,0.0,0.0,100,0.12,,---,0.55,VWS V14.00,2013-01-30 12:12:00,
2013-01-30 07:17:00,51.6,51.6,28.64,NW,323,0.0,0.0,100,0.12,,---,0.55,VWS V14.00,2013-01-30 12:17:00,
2013-01-30 07:22:00,51.8,51.8,28.64,NW,323,0.0,0.0,100,0.12,,---,0.55,VWS V14.00,2013-01-30 12:22:00,
2013-01-30 07:27:00,51.8,51.8,28.64,SSW,213,0.0,0.0,100,0.12,,---,0.55,VWS V14.00,2013-01-30 12:27:00,
2013-01-30 07:32:00,51.8,51.8,28.64,SSE,162,0.0,0.0,100,0.08,,---,0.59,VWS V14.00,2013-01-30 12:32:00,
2013-01-30 07:37:00,52.0,52.0,28.64,SSE,158,0.0,0.0,100,0.08,,---,0.59,VWS V14.00,2013-01-30 12:37:00,
2013-01-30 07:42:00,52.0,52.0,28.64,SE,130,4.0,4.0,100,0.08,,---,0.59,VWS V14.00,2013-01-30 12:42:00,
2013-01-30 07:47:00,52.0,52.0,28.64,ESE,108,0.0,4.0,100,0.08,,---,0.59,VWS V14.00,2013-01-30 12:47:00,
2013-01-30 07:52:00,52.0,52.0,28.67,South,184,0.0,3.1,100,0.08,,---,0.59,VWS V14.00,2013-01-30 12:52:00,
2013-01-30 07:57:00,52.0,52.0,28.67,NE,52,3.1,3.6,100,0.08,,---,0.59,VWS V14.00,2013-01-30 12:57:00,
2013-01-30 08:02:00,52.2,52.2,28.67,ESE,112,0.0,0.0,100,0.08,,---,0.63,VWS V14.00,2013-01-30 13:02:00,
2013-01-30 08:07:00,52.2,52.2,28.67,East,84,4.0,4.0,100,0.08,,---,0.63,VWS V14.00,2013-01-30 13:07:00,
2013-01-30 08:12:00,52.2,52.2,28.67,SSW,203,4.0,5.8,100,0.08,,---,0.63,VWS V14.00,2013-01-30 13:12:00,
2013-01-30 08:17:00,52.2,52.2,28.67,SSW,212,2.7,2.7,100,0.12,,---,0.67,VWS V14.00,2013-01-30 13:17:00,
2013-01-30 08:22:00,52.2,52.2,28.67,East,101,4.9,4.9,100,0.12,,---,0.67,VWS V14.00,2013-01-30 13:22:00,
2013-01-30 08:27:00,52.2,52.2,28.67,SSE,148,0.0,2.7,100,0.12,,---,0.67,VWS V14.00,2013-01-30 13:27:00,
2013-01-30 08:32:00,52.3,52.3,28.67,WSW,240,3.6,3.6,100,0.12,,---,0.67,VWS V14.00,2013-01-30 13:32:00,
2013-01-30 08:37:00,52.3,52.3,28.64,SE,131,2.2,6.3,100,0.12,,---,0.67,VWS V14.00,2013-01-30 13:37:00,
2013-01-30 08:42:00,52.3,52.3,28.64,East,96,0.0,5.4,100,0.12,,---,0.71,VWS V14.00,2013-01-30 13:42:00,
2013-01-30 08:47:00,52.3,52.3,28.64,WNW,302,2.7,3.1,100,0.12,,---,0.71,VWS V14.00,2013-01-30 13:47:00,
2013-01-30 08:52:00,52.5,52.5,28.64,South,186,5.4,5.4,100,0.12,,---,0.71,VWS V14.00,2013-01-30 13:52:00,
2013-01-30 08:57:00,52.5,52.5,28.64,SSW,207,2.2,3.1,100,0.12,,---,0.71,VWS V14.00,2013-01-30 13:57:00,
2013-01-30 09:02:00,52.5,52.5,28.64,WSW,243,5.8,6.3,100,0.12,,---,0.71,VWS V14.00,2013-01-30 14:02:00,
2013-01-30 09:07:00,52.7,52.7,28.64,South,178,4.9,8.1,100,0.12,,---,0.71,VWS V14.00,2013-01-30 14:07:00,
2013-01-30 09:12:00,52.7,52.7,28.64,SW,227,2.7,5.8,100,0.12,,---,0.71,VWS V14.00,2013-01-30 14:12:00,
2013-01-30 09:17:00,52.9,52.9,28.64,South,169,3.6,8.3,100,0.12,,---,0.71,VWS V14.00,2013-01-30 14:17:00,
2013-01-30 09:22:00,52.9,52.9,28.64,NNE,21,3.6,4.0,100,0.12,,---,0.71,VWS V14.00,2013-01-30 14:22:00,
2013-01-30 09:27:00,52.9,52.9,28.64,SE,132,3.6,8.1,100,0.12,,---,0.71,VWS V14.00,2013-01-30 14:27:00,
2013-01-30 09:32:00,53.1,53.1,28.64,SW,221,5.8,6.7,100,0.12,,---,0.71,VWS V14.00,2013-01-30 14:32:00,
2013-01-30 09:37:00,53.1,53.1,28.61,East,92,4.5,5.8,100,0.12,,---,0.71,VWS V14.00,2013-01-30 14:37:00,
2013-01-30 09:42:00,53.2,53.2,28.61,SSE,152,3.6,10.5,100,0.12,,---,0.71,VWS V14.00,2013-01-30 14:42:00,
2013-01-30 09:47:00,53.2,53.2,28.61,SW,224,3.6,12.3,100,0.12,,---,0.71,VWS V14.00,2013-01-30 14:47:00,
2013-01-30 09:52:00,53.4,53.4,28.59,SSE,154,5.4,10.1,100,0.12,,---,0.71,VWS V14.00,2013-01-30 14:52:00,
2013-01-30 09:57:00,53.6,53.6,28.59,SSE,160,3.1,3.1,100,0.12,,---,0.71,VWS V14.00,2013-01-30 14:57:00,
2013-01-30 10:02:00,53.6,53.6,28.59,SSW,200,8.1,8.1,100,0.12,,---,0.71,VWS V14.00,2013-01-30 15:02:00,
2013-01-30 10:07:00,54.0,54.0,28.59,SSW,207,8.3,8.3,100,0.12,,---,0.71,VWS V14.00,2013-01-30 15:07:00,
2013-01-30 10:12:00,54.0,54.0,28.59,SW,214,0.0,8.3,100,0.12,,---,0.71,VWS V14.00,2013-01-30 15:12:00,
2013-01-30 10:17:00,54.0,54.0,28.59,East,91,4.5,8.3,100,0.12,,---,0.71,VWS V14.00,2013-01-30 15:17:00,
2013-01-30 10:22:00,54.1,54.1,28.59,SW,217,5.8,11.0,100,0.12,,---,0.71,VWS V14.00,2013-01-30 15:22:00,
2013-01-30 10:27:00,54.1,54.1,28.59,SSW,198,5.4,8.7,100,0.12,,---,0.71,VWS V14.00,2013-01-30 15:27:00,
2013-01-30 10:32:00,54.3,54.3,28.59,SW,224,9.2,9.2,100,0.12,,---,0.71,VWS V14.00,2013-01-30 15:32:00,
2013-01-30 10:37:00,54.5,54.5,28.56,SSW,198,8.1,10.1,100,0.12,,---,0.71,VWS V14.00,2013-01-30 15:37:00,
2013-01-30 10:42:00,54.5,54.5,28.56,SSW,206,5.8,9.6,100,0.12,,---,0.71,VWS V14.00,2013-01-30 15:42:00,
2013-01-30 10:47:00,54.9,54.9,28.56,SSW,195,8.1,8.1,100,0.00,,---,0.71,VWS V14.00,2013-01-30 15:47:00,
2013-01-30 10:52:00,55.2,55.2,28.59,SSW,202,8.1,10.1,100,0.00,,---,0.71,VWS V14.00,2013-01-30 15:52:00,
2013-01-30 10:57:00,55.4,55.4,28.59,SW,215,8.7,8.7,100,0.00,,---,0.71,VWS V14.00,2013-01-30 15:57:00,
2013-01-30 11:02:00,55.4,55.4,28.59,SSW,200,6.3,11.0,100,0.00,,---,0.71,VWS V14.00,2013-01-30 16:02:00,
2013-01-30 11:07:00,55.4,55.4,28.59,SSW,196,8.3,11.4,100,0.00,,---,0.71,VWS V14.00,2013-01-30 16:07:00,
2013-01-30 11:12:00,55.6,55.6,28.59,SSW,205,7.2,11.0,100,0.00,,---,0.71,VWS V14.00,2013-01-30 16:12:00,
2013-01-30 11:17:00,55.4,55.4,28.59,SW,216,4.9,7.6,100,0.00,,---,0.71,VWS V14.00,2013-01-30 16:17:00,
2013-01-30 11:22:00,55.4,55.4,28.59,SSW,206,8.1,8.1,100,0.00,,---,0.71,VWS V14.00,2013-01-30 16:22:00,
2013-01-30 11:27:00,55.4,55.4,28.59,SW,227,12.8,12.8,100,0.00,,---,0.71,VWS V14.00,2013-01-30 16:27:00,
2013-01-30 11:32:00,55.6,55.6,28.59,South,184,5.4,8.3,100,0.00,,---,0.71,VWS V14.00,2013-01-30 16:32:00,
2013-01-30 11:37:00,55.6,55.6,28.59,SSW,210,5.8,5.8,100,0.00,,---,0.71,VWS V14.00,2013-01-30 16:37:00,
2013-01-30 11:42:00,55.6,55.6,28.59,SSW,212,4.9,4.9,100,0.00,,---,0.71,VWS V14.00,2013-01-30 16:42:00,
2013-01-30 11:47:00,55.6,55.6,28.59,WSW,243,5.4,9.2,100,0.00,,---,0.71,VWS V14.00,2013-01-30 16:47:00,
2013-01-30 11:52:00,55.9,55.9,28.56,SW,226,8.7,8.7,100,0.00,,---,0.71,VWS V14.00,2013-01-30 16:52:00,
2013-01-30 11:57:00,56.1,56.1,28.56,SW,233,18.3,18.3,100,0.00,,---,0.71,VWS V14.00,2013-01-30 16:57:00,
2013-01-30 12:02:00,56.1,56.1,28.56,SSW,198,8.1,8.1,100,0.00,,---,0.71,VWS V14.00,2013-01-30 17:02:00,
2013-01-30 12:07:00,55.9,55.9,28.59,SSW,206,8.3,8.3,100,0.00,,---,0.71,VWS V14.00,2013-01-30 17:07:00,
2013-01-30 12:12:00,55.9,55.9,28.59,SSW,205,5.4,5.4,100,0.00,,---,0.71,VWS V14.00,2013-01-30 17:12:00,
2013-01-30 12:17:00,55.9,55.9,28.59,North,3,8.1,8.1,100,0.00,,---,0.71,VWS V14.00,2013-01-30 17:17:00,
2013-01-30 12:22:00,56.3,56.3,28.59,South,172,8.1,8.1,100,0.00,,---,0.71,VWS V14.00,2013-01-30 17:22:00,
2013-01-30 12:27:00,56.3,56.3,28.59,SSW,194,8.1,8.1,100,0.00,,---,0.71,VWS V14.00,2013-01-30 17:27:00,
2013-01-30 12:32:00,56.3,56.3,28.59,WSW,249,8.3,11.4,100,0.00,,---,0.71,VWS V14.00,2013-01-30 17:32:00,
2013-01-30 12:37:00,56.1,56.1,28.59,SW,236,10.1,10.1,100,0.00,,---,0.71,VWS V14.00,2013-01-30 17:37:00,
2013-01-30 12:42:00,55.9,55.9,28.59,SSW,198,5.4,7.6,100,0.00,,---,0.71,VWS V14.00,2013-01-30 17:42:00,
2013-01-30 12:47:00,55.9,55.9,28.59,SSE,158,13.2,13.2,100,0.00,,---,0.71,VWS V14.00,2013-01-30 17:47:00,
2013-01-30 12:52:00,55.9,55.9,28.59,SW,224,8.3,11.0,100,0.00,,---,0.71,VWS V14.00,2013-01-30 17:52:00,
2013-01-30 12:57:00,55.8,55.8,28.59,South,178,8.3,8.3,100,0.00,,---,0.71,VWS V14.00,2013-01-30 17:57:00,
2013-01-30 13:02:00,55.8,55.8,28.59,South,191,9.6,9.6,100,0.00,,---,0.71,VWS V14.00,2013-01-30 18:02:00,
2013-01-30 13:07:00,55.9,55.9,28.56,WSW,247,7.2,8.3,100,0.00,,---,0.71,VWS V14.00,2013-01-30 18:07:00,
2013-01-30 13:12:00,55.9,55.9,28.56,SSW,193,3.6,3.6,100,0.00,,---,0.71,VWS V14.00,2013-01-30 18:12:00,
2013-01-30 13:17:00,55.8,55.8,28.56,SSW,197,7.6,7.6,100,0.00,,---,0.71,VWS V14.00,2013-01-30 18:17:00,
2013-01-30 13:22:00,55.8,55.8,28.56,SW,220,12.3,12.3,100,0.00,,---,0.71,VWS V14.00,2013-01-30 18:22:00,
2013-01-30 13:27:00,55.8,55.8,28.56,South,176,6.3,6.3,100,0.00,,---,0.71,VWS V14.00,2013-01-30 18:27:00,
2013-01-30 13:32:00,55.9,55.9,28.56,WSW,247,8.1,8.1,100,0.00,,---,0.71,VWS V14.00,2013-01-30 18:32:00,
2013-01-30 13:37:00,55.8,55.8,28.56,WSW,246,7.2,7.2,100,0.00,,---,0.71,VWS V14.00,2013-01-30 18:37:00,
2013-01-30 13:42:00,55.9,55.9,28.56,SSW,201,5.8,8.7,100,0.00,,---,0.71,VWS V14.00,2013-01-30 18:42:00,
2013-01-30 13:47:00,55.9,55.9,28.56,SW,218,13.2,13.2,100,0.00,,---,0.71,VWS V14.00,2013-01-30 18:47:00,
2013-01-30 13:52:00,55.9,55.9,28.53,SW,218,6.3,6.3,100,0.00,,---,0.71,VWS V14.00,2013-01-30 18:52:00,
2013-01-30 13:57:00,55.9,55.9,28.53,West,259,2.2,4.0,100,0.00,,---,0.71,VWS V14.00,2013-01-30 18:57:00,
2013-01-30 14:02:00,56.1,56.1,28.53,SW,216,5.4,8.3,100,0.00,,---,0.71,VWS V14.00,2013-01-30 19:02:00,
2013-01-30 14:07:00,56.1,56.1,28.53,SSW,193,7.6,10.1,100,0.00,,---,0.71,VWS V14.00,2013-01-30 19:07:00,
2013-01-30 14:12:00,55.9,55.9,28.53,SW,228,4.0,8.1,100,0.00,,---,0.71,VWS V14.00,2013-01-30 19:12:00,
2013-01-30 14:17:00,55.9,55.9,28.53,South,181,7.6,9.6,100,0.00,,---,0.71,VWS V14.00,2013-01-30 19:17:00,
2013-01-30 14:22:00,55.9,55.9,28.50,SSW,201,7.6,11.0,100,0.00,,---,0.71,VWS V14.00,2013-01-30 19:22:00,
2013-01-30 14:27:00,55.8,55.8,28.50,WSW,248,7.2,11.0,100,0.00,,---,0.71,VWS V14.00,2013-01-30 19:27:00,
2013-01-30 14:32:00,55.9,55.9,28.50,WSW,249,8.3,8.3,100,0.00,,---,0.71,VWS V14.00,2013-01-30 19:32:00,
2013-01-30 14:37:00,55.9,55.9,28.50,SSW,212,8.3,8.3,100,0.00,,---,0.71,VWS V14.00,2013-01-30 19:37:00,
2013-01-30 14:42:00,55.8,55.8,28.50,SSW,196,8.7,8.7,100,0.00,,---,0.71,VWS V14.00,2013-01-30 19:42:00,
2013-01-30 14:47:00,55.6,55.6,28.50,WSW,240,9.6,9.6,100,0.00,,---,0.71,VWS V14.00,2013-01-30 19:47:00,
2013-01-30 14:52:00,55.6,55.6,28.50,West,262,4.9,4.9,100,0.00,,---,0.71,VWS V14.00,2013-01-30 19:52:00,
2013-01-30 14:57:00,55.6,55.6,28.53,SSW,198,5.8,8.7,100,0.00,,---,0.71,VWS V14.00,2013-01-30 19:57:00,
2013-01-30 15:02:00,55.6,55.6,28.53,SW,229,7.6,7.6,100,0.00,,---,0.71,VWS V14.00,2013-01-30 20:02:00,
2013-01-30 15:07:00,55.6,55.6,28.53,SW,223,10.5,10.5,100,0.00,,---,0.71,VWS V14.00,2013-01-30 20:07:00,
2013-01-30 15:12:00,55.4,55.4,28.53,SW,226,8.7,8.7,100,0.00,,---,0.71,VWS V14.00,2013-01-30 20:12:00,
2013-01-30 15:17:00,55.4,55.4,28.53,SSW,195,10.5,10.5,100,0.00,,---,0.71,VWS V14.00,2013-01-30 20:17:00,
2013-01-30 15:22:00,55.4,55.4,28.53,SSW,208,5.4,5.4,100,0.00,,---,0.71,VWS V14.00,2013-01-30 20:22:00,
2013-01-30 15:27:00,55.2,55.2,28.53,WSW,258,5.8,5.8,100,0.00,,---,0.71,VWS V14.00,2013-01-30 20:27:00,
2013-01-30 15:32:00,55.2,55.2,28.53,SW,214,8.1,8.1,100,0.00,,---,0.71,VWS V14.00,2013-01-30 20:32:00,
2013-01-30 15:37:00,55.2,55.2,28.53,South,189,9.6,9.6,100,0.00,,---,0.71,VWS V14.00,2013-01-30 20:37:00,
2013-01-30 15:42:00,55.2,55.2,28.53,South,191,5.4,5.4,100,0.00,,---,0.71,VWS V14.00,2013-01-30 20:42:00,
2013-01-30 15:47:00,55.2,55.2,28.53,WSW,238,3.6,3.6,100,0.00,,---,0.71,VWS V14.00,2013-01-30 20:47:00,
2013-01-30 15:52:00,55.2,55.2,28.50,SW,219,8.3,8.7,100,0.00,,---,0.71,VWS V14.00,2013-01-30 20:52:00,
2013-01-30 15:57:00,55.2,55.2,28.50,SSW,194,10.5,10.5,100,0.00,,---,0.71,VWS V14.00,2013-01-30 20:57:00,
2013-01-30 16:02:00,55.4,55.4,28.50,SSW,195,7.6,7.6,100,0.00,,---,0.71,VWS V14.00,2013-01-30 21:02:00,
2013-01-30 16:07:00,55.0,55.0,28.50,SW,216,7.2,7.2,100,0.00,,---,0.71,VWS V14.00,2013-01-30 21:07:00,
2013-01-30 16:12:00,55.0,55.0,28.50,SW,216,7.2,7.2,100,0.00,,---,0.71,VWS V14.00,2013-01-30 21:12:00,
2013-01-30 16:17:00,55.0,55.0,28.50,SW,232,9.2,9.2,100,0.00,,---,0.71,VWS V14.00,2013-01-30 21:17:00,
2013-01-30 16:22:00,55.2,55.2,28.50,SW,232,6.3,6.3,100,0.00,,---,0.71,VWS V14.00,2013-01-30 21:22:00,
2013-01-30 16:27:00,54.9,54.9,28.50,WSW,251,5.8,6.3,100,0.00,,---,0.71,VWS V14.00,2013-01-30 21:27:00,
2013-01-30 16:32:00,54.9,54.9,28.50,West,281,7.6,7.6,100,0.00,,---,0.71,VWS V14.00,2013-01-30 21:32:00,
2013-01-30 16:37:00,54.9,54.9,28.50,SSW,201,8.3,8.3,100,0.00,,---,0.71,VWS V14.00,2013-01-30 21:37:00,
2013-01-30 16:42:00,54.9,54.9,28.50,SW,233,5.8,5.8,100,0.00,,---,0.71,VWS V14.00,2013-01-30 21:42:00,
2013-01-30 16:47:00,54.9,54.9,28.50,SW,233,5.8,5.8,100,0.00,,---,0.71,VWS V14.00,2013-01-30 21:47:00,
2013-01-30 16:52:00,54.9,54.9,28.50,SW,214,3.1,3.1,100,0.00,,---,0.71,VWS V14.00,2013-01-30 21:52:00,
2013-01-30 16:57:00,54.5,54.5,28.50,SSW,203,4.0,5.8,100,0.00,,---,0.71,VWS V14.00,2013-01-30 21:57:00,
2013-01-30 17:02:00,54.5,54.5,28.50,South,170,11.0,11.0,100,0.00,,---,0.71,VWS V14.00,2013-01-30 22:02:00,
2013-01-30 17:07:00,54.5,54.5,28.50,SW,229,6.3,6.3,100,0.00,,---,0.71,VWS V14.00,2013-01-30 22:07:00,
2013-01-30 17:12:00,54.3,54.3,28.50,WSW,240,8.3,8.3,100,0.00,,---,0.71,VWS V14.00,2013-01-30 22:12:00,
2013-01-30 17:17:00,54.3,54.3,28.50,WSW,240,8.3,8.3,100,0.00,,---,0.71,VWS V14.00,2013-01-30 22:17:00,
2013-01-30 17:22:00,54.3,54.3,28.50,SW,235,6.3,8.7,100,0.00,,---,0.71,VWS V14.00,2013-01-30 22:22:00,
2013-01-30 17:27:00,54.3,54.3,28.50,WSW,246,6.3,6.3,100,0.00,,---,0.71,VWS V14.00,2013-01-30 22:27:00,
2013-01-30 17:32:00,54.0,54.0,28.50,SSW,210,12.3,12.3,100,0.00,,---,0.71,VWS V14.00,2013-01-30 22:32:00,
2013-01-30 17:37:00,54.0,54.0,28.50,SSE,161,12.8,12.8,100,0.00,,---,0.71,VWS V14.00,2013-01-30 22:37:00,
2013-01-30 17:42:00,54.0,54.0,28.47,SE,126,7.6,7.6,100,0.00,,---,0.71,VWS V14.00,2013-01-30 22:42:00,
2013-01-30 17:47:00,53.4,53.4,28.47,South,180,6.7,6.7,100,0.00,,---,0.71,VWS V14.00,2013-01-30 22:47:00,
2013-01-30 17:52:00,52.7,52.7,28.47,WSW,237,6.3,6.3,100,0.00,,---,0.71,VWS V14.00,2013-01-30 22:52:00,
2013-01-30 17:57:00,52.7,52.7,28.47,WSW,255,4.9,4.9,100,0.00,,---,0.71,VWS V14.00,2013-01-30 22:57:00,
2013-01-30 18:02:00,52.5,52.5,28.47,SW,214,5.4,7.2,100,0.00,,---,0.71,VWS V14.00,2013-01-30 23:02:00,
2013-01-30 18:06:00,52.7,52.7,28.47,SW,226,5.8,5.8,100,0.00,,---,0.71,VWS V14.00,2013-01-30 23:06:00,
2013-01-30 18:12:00,52.7,52.7,28.47,SW,226,5.8,5.8,100,0.00,,---,0.71,VWS V14.00,2013-01-30 23:12:00,
2013-01-30 18:17:00,52.7,52.7,28.47,SW,216,4.0,4.0,100,0.00,,---,0.71,VWS V14.00,2013-01-30 23:17:00,
2013-01-30 18:22:00,52.7,52.7,28.50,SSW,211,10.5,10.5,100,0.00,,---,0.71,VWS V14.00,2013-01-30 23:22:00,
2013-01-30 18:27:00,52.7,52.7,28.50,SSW,211,10.5,10.5,100,0.00,,---,0.71,VWS V14.00,2013-01-30 23:27:00,
2013-01-30 18:31:00,50.4,50.4,28.50,West,262,4.0,4.0,100,0.94,,---,0.79,VWS V14.00,2013-01-30 23:31:00,
2013-01-30 18:36:00,43.7,43.7,28.53,WNW,302,6.3,6.3,100,0.94,,---,0.79,VWS V14.00,2013-01-30 23:36:00,
2013-01-30 18:41:00,43.3,43.3,28.53,NNW,341,5.8,11.0,100,0.94,,---,0.79,VWS V14.00,2013-01-30 23:41:00,
2013-01-30 18:46:00,43.3,43.3,28.53,NNW,341,5.8,5.8,100,0.35,,---,0.83,VWS V14.00,2013-01-30 23:46:00,
2013-01-30 18:51:00,41.4,41.4,28.53,West,276,8.7,8.7,100,0.35,,---,0.83,VWS V14.00,2013-01-30 23:51:00,
2013-01-30 18:56:00,41.0,41.0,28.53,WNW,299,12.8,12.8,100,0.35,,---,0.83,VWS V14.00,2013-01-30 23:56:00,
2013-01-30 19:01:00,39.9,39.9,28.53,WNW,299,12.8,12.8,100,0.35,,---,0.83,VWS V14.00,2013-01-31 00:01:00,
2013-01-30 19:06:00,39.9,39.9,28.53,WNW,287,8.1,8.1,100,0.35,,---,0.83,VWS V14.00,2013-01-31 00:06:00,
2013-01-30 19:11:00,39.4,39.4,28.56,WNW,285,8.3,8.3,100,0.35,,---,0.83,VWS V14.00,2013-01-31 00:11:00,
2013-01-30 19:16:00,39.0,39.0,28.56,South,190,5.4,5.4,100,0.35,,---,0.83,VWS V14.00,2013-01-31 00:16:00,
2013-01-30 19:21:00,39.0,39.0,28.56,South,187,4.0,5.4,100,0.35,,---,0.83,VWS V14.00,2013-01-31 00:21:00,
2013-01-30 19:26:00,39.0,39.0,28.56,SW,235,4.0,4.0,100,0.35,,---,0.83,VWS V14.00,2013-01-31 00:26:00,
2013-01-30 19:32:00,39.0,39.0,28.56,SW,234,8.3,8.3,100,0.35,,---,0.83,VWS V14.00,2013-01-31 00:32:00,
2013-01-30 19:36:00,39.0,39.0,28.56,WNW,288,3.6,3.6,100,0.35,,---,0.83,VWS V14.00,2013-01-31 00:36:00,
2013-01-30 19:41:00,39.2,39.2,28.56,NW,308,6.7,6.7,100,0.35,,---,0.83,VWS V14.00,2013-01-31 00:41:00,
2013-01-30 19:46:00,39.2,39.2,28.56,WNW,285,4.0,4.0,100,0.35,,---,0.83,VWS V14.00,2013-01-31 00:46:00,
2013-01-30 19:51:00,39.0,39.0,28.59,West,278,6.3,6.3,100,0.35,,---,0.83,VWS V14.00,2013-01-31 00:51:00,
2013-01-30 19:57:00,39.0,39.0,28.59,West,263,12.3,12.3,100,0.35,,---,0.83,VWS V14.00,2013-01-31 00:57:00,
2013-01-30 20:02:00,39.0,39.0,28.59,WNW,289,9.6,9.6,100,0.35,,---,0.83,VWS V14.00,2013-01-31 01:02:00,
2013-01-30 20:07:00,38.8,38.8,28.59,NW,304,6.7,6.7,100,0.35,,---,0.83,VWS V14.00,2013-01-31 01:07:00,
2013-01-30 20:12:00,39.0,39.0,28.59,WNW,288,8.7,8.7,100,0.35,,---,0.83,VWS V14.00,2013-01-31 01:12:00,
2013-01-30 20:17:00,39.0,39.0,28.59,WSW,254,8.7,8.7,100,0.35,,---,0.83,VWS V14.00,2013-01-31 01:17:00,
2013-01-30 20:22:00,37.0,37.0,28.59,West,274,5.8,5.8,100,0.35,,---,0.83,VWS V14.00,2013-01-31 01:22:00,
2013-01-30 20:27:00,36.3,36.3,28.59,ESE,112,15.0,15.0,100,0.35,,---,0.83,VWS V14.00,2013-01-31 01:27:00,
2013-01-30 20:32:00,36.3,36.3,28.59,WNW,282,8.3,8.3,100,0.35,,---,0.83,VWS V14.00,2013-01-31 01:32:00,
2013-01-30 20:37:00,36.1,36.1,28.59,NW,321,5.4,5.4,100,0.35,,---,0.83,VWS V14.00,2013-01-31 01:37:00,
2013-01-30 20:42:00,36.1,36.1,28.59,WNW,301,5.4,10.5,100,0.35,,---,0.83,VWS V14.00,2013-01-31 01:42:00,
2013-01-30 20:47:00,36.1,36.1,28.59,WSW,242,5.8,5.8,100,0.35,,---,0.83,VWS V14.00,2013-01-31 01:47:00,
2013-01-30 20:52:00,36.3,36.3,28.59,NW,313,4.9,4.9,100,0.00,,---,0.83,VWS V14.00,2013-01-31 01:52:00,
2013-01-30 20:57:00,36.3,36.3,28.59,WSW,256,6.3,6.3,100,0.00,,---,0.83,VWS V14.00,2013-01-31 01:57:00,
2013-01-30 21:02:00,36.3,36.3,28.59,WNW,293,5.4,5.4,100,0.00,,---,0.83,VWS V14.00,2013-01-31 02:02:00,
2013-01-30 21:07:00,36.3,36.3,28.59,WNW,293,5.4,5.4,100,0.00,,---,0.83,VWS V14.00,2013-01-31 02:07:00,
2013-01-30 21:12:00,36.3,36.3,28.61,WSW,257,5.8,5.8,100,0.00,,---,0.83,VWS V14.00,2013-01-31 02:12:00,
2013-01-30 21:17:00,36.3,36.3,28.61,WNW,285,4.9,4.9,100,0.00,,---,0.83,VWS V14.00,2013-01-31 02:17:00,
2013-01-30 21:22:00,36.3,36.3,28.61,West,261,9.6,12.3,100,0.00,,---,0.83,VWS V14.00,2013-01-31 02:22:00,
2013-01-30 21:27:00,35.8,35.8,28.61,NNW,337,6.3,6.3,100,0.00,,---,0.83,VWS V14.00,2013-01-31 02:27:00,
2013-01-30 21:32:00,35.6,35.6,28.61,WNW,295,10.5,10.5,100,0.00,,---,0.83,VWS V14.00,2013-01-31 02:32:00,
2013-01-30 21:37:00,35.2,35.2,28.61,NW,314,10.1,10.1,100,0.00,,---,0.83,VWS V14.00,2013-01-31 02:37:00,
2013-01-30 21:42:00,35.1,35.1,28.61,NW,307,9.6,9.6,100,0.00,,---,0.83,VWS V14.00,2013-01-31 02:42:00,
2013-01-30 21:47:00,35.1,35.1,28.61,WNW,300,5.8,5.8,100,0.00,,---,0.83,VWS V14.00,2013-01-31 02:47:00,
2013-01-30 21:52:00,34.2,34.2,28.64,WNW,286,10.5,13.6,100,0.00,,---,0.83,VWS V14.00,2013-01-31 02:52:00,
2013-01-30 21:57:00,34.2,34.2,28.64,WNW,283,12.3,12.3,100,0.00,,---,0.83,VWS V14.00,2013-01-31 02:57:00,
2013-01-30 22:02:00,33.8,33.8,28.64,WNW,284,5.8,5.8,100,0.00,,---,0.83,VWS V14.00,2013-01-31 03:02:00,
2013-01-30 22:07:00,33.8,33.8,28.64,WNW,299,9.2,9.2,100,0.00,,---,0.83,VWS V14.00,2013-01-31 03:07:00,
2013-01-30 22:12:00,33.8,33.8,28.64,WNW,295,5.4,5.4,100,0.00,,---,0.83,VWS V14.00,2013-01-31 03:12:00,
2013-01-30 22:17:00,33.6,33.6,28.64,SW,222,6.3,11.0,100,0.00,,---,0.83,VWS V14.00,2013-01-31 03:17:00,
2013-01-30 22:22:00,33.6,33.6,28.67,WNW,285,13.2,13.2,100,0.00,,---,0.83,VWS V14.00,2013-01-31 03:22:00,
2013-01-30 22:27:00,33.4,33.4,28.67,WNW,302,15.0,15.0,100,0.00,,---,0.83,VWS V14.00,2013-01-31 03:27:00,
2013-01-30 22:32:00,33.4,33.4,28.67,NNW,327,7.2,7.2,100,0.00,,---,0.83,VWS V14.00,2013-01-31 03:32:00,
2013-01-30 22:37:00,33.4,33.4,28.67,WNW,289,5.8,5.8,100,0.00,,---,0.83,VWS V14.00,2013-01-31 03:37:00,
2013-01-30 22:42:00,33.4,33.4,28.67,SSW,192,11.0,11.0,100,0.00,,---,0.83,VWS V14.00,2013-01-31 03:42:00,
2013-01-30 22:47:00,33.1,33.1,28.67,West,270,14.1,14.1,100,0.00,,---,0.83,VWS V14.00,2013-01-31 03:47:00,
2013-01-30 22:52:00,32.9,32.9,28.67,West,270,14.1,14.1,100,0.00,,---,0.83,VWS V14.00,2013-01-31 03:52:00,
2013-01-30 22:57:00,32.7,32.7,28.67,NNW,333,8.1,8.1,100,0.00,,---,0.83,VWS V14.00,2013-01-31 03:57:00,
2013-01-30 23:02:00,32.7,32.7,28.67,WNW,286,8.1,8.1,100,0.00,,---,0.83,VWS V14.00,2013-01-31 04:02:00,
2013-01-30 23:07:00,32.7,32.7,28.70,WNW,286,8.1,8.1,100,0.00,,---,0.83,VWS V14.00,2013-01-31 04:07:00,
2013-01-30 23:12:00,32.5,32.5,28.70,WNW,287,2.7,2.7,100,0.00,,---,0.83,VWS V14.00,2013-01-31 04:12:00,
2013-01-30 23:17:00,32.5,32.5,28.70,WNW,285,8.7,8.7,100,0.00,,---,0.83,VWS V14.00,2013-01-31 04:17:00,
2013-01-30 23:22:00,32.7,32.7,28.70,WSW,246,9.2,9.2,100,0.00,,---,0.83,VWS V14.00,2013-01-31 04:22:00,
2013-01-30 23:27:00,32.5,32.5,28.70,NW,305,6.3,6.3,100,0.00,,---,0.83,VWS V14.00,2013-01-31 04:27:00,
2013-01-30 23:32:00,32.5,32.5,28.70,NW,308,7.6,7.6,100,0.00,,---,0.83,VWS V14.00,2013-01-31 04:32:00,
2013-01-30 23:37:00,32.5,32.5,28.70,WSW,240,4.0,4.0,100,0.00,,---,0.83,VWS V14.00,2013-01-31 04:37:00,
2013-01-30 23:42:00,32.4,32.4,28.70,WSW,240,4.0,4.0,100,0.00,,---,0.83,VWS V14.00,2013-01-31 04:42:00,
2013-01-30 23:47:00,32.2,32.2,28.70,WNW,282,12.8,12.8,100,0.00,,---,0.83,VWS V14.00,2013-01-31 04:47:00,
2013-01-30 23:52:00,32.2,32.2,28.73,NW,308,4.9,11.0,100,0.00,,---,0.83,VWS V14.00,2013-01-31 04:52:00,
2013-01-30 23:57:00,32.2,32.2,28.73,WSW,249,7.2,7.2,100,0.00,,---,0.83,VWS V14.00,2013-01-31 04:57:00,